Tracking 25963 objects as of 13-Aug-2022
HD Live streaming from Space Station
objects crossing your sky now

THOR ABLESTAR DEB

Track THOR ABLESTAR DEB now!
10-day predictions


NORAD ID: 210
Int'l Code: 1961-015BE
Perigee: 919.4 km
Apogee: 977.2 km
Inclination: 66.5 °
Period: 103.9 minutes
Semi major axis: 7319 km
RCS: 0.1684 m2 (medium)
Launch date: June 29, 1961
Source: United States (US)
Launch site: AIR FORCE EASTERN TEST RANGE (AFETR)

Note: This is SATELLITE DEBRIS
aabbcc
Your satellite tracking list
Your tracking list is empty




NASA's NSSDC Master Catalog

Two Line Element Set (TLE):
1 00210U 61015BE  22224.74216119  .00000256  00000-0  28683-3 0  9992
2 00210  66.4560 224.4584 0039541 123.3356 237.1513 13.86433217 70520
Source of the keplerian elements: AFSPC